This demonstration page uses our WeatherBlox Daily Observations layout. Learn more.

Left ArrowRight Arrow

Hourly Observations for August 26, 2021

Temp ( °F °C ) Dew Point ( °F °C ) Humidity (%) Winds ( mph kmh ) Pressure ( in mb ) Visibility ( mi km ) Precip ( " mm )
12:51 am 00:51 Clear 79 26.1 71 21.7 77 77 SSW 3 6 30.08 1019 10 16 0.00 0.00
1:51 am 01:51 Clear 77 25 71 21.7 82 82 Calm 30.08 1019 10 16 0.00 0.00
2:51 am 02:51 Clear 76 24.4 71 21.7 85 85 Calm 30.08 1019 10 16 0.00 0.00
3:51 am 03:51 Clear 75 23.9 70 21.1 84 84 SW 3 6 30.08 1019 10 16 0.00 0.00
4:51 am 04:51 Clear 74 23.3 70 21.1 88 88 SW 5 7 30.09 1019 10 16 0.00 0.00
5:51 am 05:51 Clear 75 23.9 69 20.6 82 82 Calm 30.10 1019 10 16 0.00 0.00
6:51 am 06:51 Sunny 74 23.3 69 20.6 85 85 Calm 30.11 1020 10 16 0.00 0.00
7:51 am 07:51 Sunny 77 25 72 22.2 85 85 Calm 30.12 1020 9 14 0.00 0.00
8:51 am 08:51 Sunny 81 27.2 71 21.7 72 72 SSE 3 6 30.11 1020 10 16 0.00 0.00
9:51 am 09:51 Sunny 85 29.4 71 21.7 63 63 Calm 30.11 1020 10 16 0.00 0.00
10:51 am 10:51 Sunny 86 30 71 21.7 61 61 Calm 30.11 1020 10 16 0.00 0.00
11:51 am 11:51 Sunny 89 31.7 69 20.6 52 52 W 8 13 30.10 1019 10 16 0.00 0.00
12:51 pm 12:51 Mostly Sunny 91 32.8 70 21.1 50 50 VRB 6 9 30.09 1019 10 16 0.00 0.00
1:51 pm 13:51 Sunny 92 33.3 67 19.4 44 44 Calm 30.07 1018 10 16 0.00 0.00
2:51 pm 14:51 Sunny 93 33.9 67 19.4 42 42 Calm 30.05 1018 10 16 0.00 0.00
3:51 pm 15:51 Partly Cloudy 90 32.2 72 22.2 56 56 S 12 19 30.04 1017 10 16 0.00 0.00
4:51 pm 16:51 Sunny 88 31.1 72 22.2 59 59 S 10 17 30.03 1017 10 16 0.00 0.00
5:34 pm 17:34 Sunny with Nearby Thunderstorms 89 31.7 72 22.2 57 57 S 9 15 30.03 1017 10 16 0.00 0.00
5:51 pm 17:51 Sunny with Nearby Thunderstorms 88 31.1 73 22.8 61 61 S 9 15 30.04 1017 10 16 0.00 0.00
6:02 pm 18:02 Sunny 88 31.1 73 22.8 61 61 S 8 13 30.04 1017 10 16 0.00 0.00
6:51 pm 18:51 Partly Cloudy 86 30 73 22.8 65 65 S 6 9 30.03 1017 10 16 0.00 0.00
7:51 pm 19:51 Clear 84 28.9 73 22.8 70 70 SSW 3 6 30.03 1017 10 16 0.00 0.00
8:51 pm 20:51 Clear 83 28.3 72 22.2 70 70 S 7 11 30.05 1018 10 16 0.00 0.00
9:51 pm 21:51 Clear 82 27.8 74 23.3 77 77 SSW 6 9 30.04 1017 10 16 0.00 0.00
10:51 pm 22:51 Clear 82 27.8 74 23.3 77 77 SSW 6 9 30.06 1018 10 16 0.00 0.00
11:51 pm 23:51 Clear 81 27.2 72 22.2 74 74 SSW 5 7 30.06 1018 10 16 0.00 0.00

Powered by Vaisala Xweather